| time (UTC) | temp F | wind direction | speed MPH | gust MPH | rain 1hr in | rain 24hr in | rain mn in | humidity % | barometer mb |
| 20260903183012 | 53 | 325 | 5.0 | 9.0 | 0.00 | 0.23 | 0.00 | 90 | 1013.3 |
| 20260903181513 | 53 | 333 | 4.0 | 9.0 | 0.00 | 0.23 | 0.00 | 89 | 1013.4 |
| 20260903180017 | 53 | 347 | 4.0 | 8.0 | 0.00 | 0.23 | 0.00 | 87 | 1013.4 |
| 20260903174504 | 54 | 310 | 6.0 | 10.0 | 0.00 | 0.23 | 0.00 | 85 | 1013.7 |
| 20260903173003 | 55 | 318 | 6.0 | 15.0 | 0.00 | 0.23 | 0.00 | 84 | 1013.7 |
| 20260903171612 | 55 | 299 | 6.0 | 12.0 | 0.00 | 0.23 | 0.00 | 84 | 1013.7 |
| 20260903170057 | 53 | 316 | 6.0 | 9.0 | 0.00 | 0.23 | 0.00 | 86 | 1013.8 |
| 20260903164612 | 53 | 309 | 4.0 | 9.0 | 0.00 | 0.23 | 0.00 | 87 | 1013.6 |
| 20260903163058 | 53 | 318 | 4.0 | 6.0 | 0.00 | 0.23 | 0.00 | 86 | 1013.6 |
| 20260903161545 | 53 | 319 | 3.0 | 10.0 | 0.00 | 0.23 | 0.00 | 85 | 1013.6 |
| 20260903160045 | 54 | 309 | 5.0 | 10.0 | 0.00 | 0.23 | 0.00 | 85 | 1014.0 |
| 20260903154547 | 53 | 299 | 3.0 | 9.0 | 0.00 | 0.23 | 0.23 | 87 | 1014.0 |
| 20260903153040 | 54 | 308 | 3.0 | 9.0 | 0.00 | 0.23 | 0.23 | 87 | 1014.1 |
| 20260903151538 | 54 | 310 | 3.0 | 8.0 | 0.00 | 0.23 | 0.23 | 87 | 1014.2 |
| 20260903150039 | 54 | 290 | 5.0 | 9.0 | 0.00 | 0.23 | 0.23 | 86 | 1014.3 |
| 20260903144543 | 55 | 270 | 2.0 | 6.0 | 0.00 | 0.23 | 0.23 | 87 | 1014.4 |
| 20260903143043 | 55 | 271 | 4.0 | 9.0 | 0.00 | 0.23 | 0.23 | 87 | 1014.6 |
| 20260903141535 | 56 | 294 | 2.0 | 7.0 | 0.00 | 0.23 | 0.23 | 88 | 1014.9 |
| 20260903140037 | 56 | 296 | 5.0 | 12.0 | 0.00 | 0.23 | 0.23 | 89 | 1015.1 |
| 20260903134530 | 56 | 300 | 5.0 | 10.0 | 0.00 | 0.23 | 0.23 | 89 | 1015.4 |
| 20260903133027 | 56 | 305 | 4.0 | 13.0 | 0.00 | 0.23 | 0.23 | 89 | 1015.4 |
| 20260903131526 | 56 | 289 | 3.0 | 7.0 | 0.00 | 0.23 | 0.23 | 90 | 1015.5 |
| 20260903130024 | 56 | 287 | 3.0 | 10.0 | 0.00 | 0.23 | 0.23 | 90 | 1015.6 |
| 20260903124523 | 56 | 301 | 5.0 | 10.0 | 0.00 | 0.23 | 0.23 | 90 | 1015.7 |
| 20260903123023 | 56 | 309 | 5.0 | 12.0 | 0.00 | 0.23 | 0.23 | 90 | 1015.7 |
| 20260903121530 | 56 | 306 | 7.0 | 10.0 | 0.00 | 0.23 | 0.23 | 91 | 1015.8 |
| 20260903120036 | 56 | 316 | 4.0 | 10.0 | 0.00 | 0.23 | 0.23 | 91 | 1015.8 |
| 20260903114522 | 56 | 309 | 3.0 | 6.0 | 0.00 | 0.23 | 0.23 | 91 | 1015.8 |
| 20260903113031 | 56 | 311 | 5.0 | 11.0 | 0.00 | 0.23 | 0.23 | 91 | 1015.7 |
| 20260903111519 | 56 | 322 | 3.0 | 8.0 | 0.00 | 0.23 | 0.23 | 90 | 1015.5 |
| 20260903110019 | 56 | 331 | 4.0 | 8.0 | 0.00 | 0.23 | 0.23 | 91 | 1015.4 |
| 20260903104525 | 57 | 328 | 4.0 | 8.0 | 0.00 | 0.23 | 0.23 | 91 | 1015.4 |
| 20260903103023 | 56 | 322 | 3.0 | 10.0 | 0.00 | 0.23 | 0.23 | 91 | 1015.3 |
| 20260903101525 | 57 | 328 | 4.0 | 9.0 | 0.00 | 0.23 | 0.23 | 91 | 1015.2 |
| 20260903100023 | 57 | 307 | 3.0 | 6.0 | 0.02 | 0.23 | 0.23 | 91 | 1015.0 |
| 20260903094527 | 57 | 295 | 4.0 | 8.0 | 0.02 | 0.23 | 0.23 | 90 | 1014.8 |
| 20260903093016 | 57 | 307 | 4.0 | 11.0 | 0.03 | 0.23 | 0.23 | 91 | 1015.0 |
| 20260903091516 | 57 | 300 | 4.0 | 9.0 | 0.02 | 0.22 | 0.22 | 91 | 1015.1 |
| 20260903090017 | 58 | 271 | 2.0 | 12.0 | 0.09 | 0.21 | 0.21 | 90 | 1014.9 |
| 20260903084515 | 58 | 304 | 5.0 | 12.0 | 0.14 | 0.20 | 0.20 | 90 | 1014.8 |
| 20260903083014 | 58 | 294 | 6.0 | 14.0 | 0.14 | 0.20 | 0.20 | 89 | 1014.9 |
| 20260903081513 | 58 | 294 | 6.0 | 12.0 | 0.17 | 0.20 | 0.20 | 90 | 1014.8 |
| 20260903080011 | 58 | 303 | 2.0 | 8.0 | 0.10 | 0.12 | 0.12 | 90 | 1015.0 |
| 20260903074509 | 58 | 317 | 5.0 | 12.0 | 0.05 | 0.06 | 0.06 | 89 | 1015.0 |
| 20260903073006 | 58 | 313 | 6.0 | 15.0 | 0.04 | 0.06 | 0.06 | 88 | 1015.2 |
| 20260903071507 | 60 | 317 | 4.0 | 11.0 | 0.01 | 0.02 | 0.02 | 82 | 1015.2 |
| 20260903070004 | 62 | 308 | 3.0 | 15.0 | 0.00 | 0.02 | 0.02 | 79 | 1015.3 |
| 20260903064501 | 62 | 320 | 7.0 | 14.0 | 0.00 | 0.02 | 0.02 | 76 | 1015.3 |
| 20260903063101 | 62 | 320 | 8.0 | 15.0 | 0.00 | 0.02 | 0.02 | 76 | 1015.3 |
| 20260903061604 | 63 | 309 | 5.0 | 13.0 | 0.01 | 0.02 | 0.02 | 78 | 1015.5 |
| 20260903060103 | 62 | 309 | 7.0 | 12.0 | 0.01 | 0.02 | 0.02 | 80 | 1015.6 |
| 20260903054557 | 61 | 350 | 5.0 | 10.0 | 0.01 | 0.02 | 0.02 | 82 | 1015.7 |
| 20260903053055 | 61 | 350 | 6.0 | 11.0 | 0.01 | 0.02 | 0.02 | 80 | 1015.9 |
| 20260903051608 | 60 | 315 | 5.0 | 13.0 | 0.00 | 0.01 | 0.01 | 83 | 1016.3 |
| 20260903050055 | 60 | 294 | 3.0 | 10.0 | 0.00 | 0.01 | 0.01 | 83 | 1016.5 |
| 20260903044551 | 62 | 304 | 8.0 | 13.0 | 0.00 | 0.01 | 0.01 | 77 | 1016.6 |
| 20260903043144 | 63 | 332 | 8.0 | 13.0 | 0.00 | 0.01 | 0.01 | 74 | 1016.8 |
| 20260903041544 | 62 | 302 | 7.0 | 14.0 | 0.00 | 0.01 | 0.01 | 74 | 1017.1 |
| 20260903040042 | 63 | 303 | 5.0 | 12.0 | 0.00 | 0.01 | 0.01 | 77 | 1017.4 |
| 20260903034541 | 61 | 304 | 5.0 | 11.0 | 0.00 | 0.01 | 0.01 | 80 | 1017.9 |
| 20260903033035 | 61 | 296 | 6.0 | 18.0 | 0.00 | 0.01 | 0.01 | 78 | 1018.1 |
| 20260903031532 | 59 | 318 | 6.0 | 14.0 | 0.00 | 0.01 | 0.01 | 82 | 1018.4 |
| 20260903030030 | 59 | 340 | 5.0 | 13.0 | 0.00 | 0.01 | 0.01 | 83 | 1018.6 |
| 20260903024529 | 60 | 307 | 6.0 | 13.0 | 0.00 | 0.01 | 0.01 | 78 | 1018.7 |
| 20260903023025 | 60 | 315 | 5.0 | 11.0 | 0.00 | 0.01 | 0.01 | 77 | 1019.0 |
| 20260903021524 | 60 | 334 | 5.0 | 11.0 | 0.00 | 0.01 | 0.01 | 79 | 1019.1 |
| 20260903020024 | 59 | 318 | 4.0 | 12.0 | 0.00 | 0.01 | 0.01 | 78 | 1019.2 |
| 20260903014522 | 59 | 313 | 6.0 | 10.0 | 0.00 | 0.01 | 0.01 | 79 | 1019.3 |
| 20260903013016 | 58 | 291 | 4.0 | 8.0 | 0.00 | 0.01 | 0.01 | 82 | 1019.4 |
| 20260903011516 | 58 | 282 | 5.0 | 8.0 | 0.00 | 0.01 | 0.01 | 82 | 1019.5 |
| 20260903010010 | 57 | 272 | 4.0 | 9.0 | 0.00 | 0.01 | 0.01 | 84 | 1019.5 |
| 20260903004507 | 56 | 303 | 3.0 | 5.0 | 0.00 | 0.01 | 0.01 | 88 | 1019.6 |
| 20260903003006 | 55 | 306 | 2.0 | 5.0 | 0.00 | 0.01 | 0.01 | 90 | 1019.7 |
| 20260903001501 | 54 | 333 | 2.0 | 4.0 | 0.00 | 0.01 | 0.01 | 92 | 1019.9 |
| 20260903000059 | 53 | 5 | 1.0 | 3.0 | 0.00 | 0.01 | 0.01 | 93 | 1019.9 |
| 20260902234615 | 52 | 5 | 0.0 | 4.0 | 0.00 | 0.01 | 0.01 | 93 | 1019.9 |
| 20260902233059 | 51 | 286 | 0.0 | 0.0 | 0.00 | 0.01 | 0.01 | 93 | 1019.9 |
| 20260902231553 | 50 | 283 | 0.0 | 0.0 | 0.00 | 0.01 | 0.01 | 93 | 1020.0 |
| 20260902230059 | 50 | 278 | 0.0 | 0.0 | 0.00 | 0.01 | 0.01 | 92 | 1019.9 |
| 20260902224607 | 50 | 276 | 0.0 | 0.0 | 0.00 | 0.01 | 0.01 | 92 | 1019.9 |
| 20260902223049 | 50 | 276 | 0.0 | 0.0 | 0.00 | 0.01 | 0.01 | 92 | 1019.8 |
| 20260902221548 | 50 | 274 | 0.0 | 0.0 | 0.00 | 0.01 | 0.01 | 92 | 1020.0 |
| 20260902220050 | 50 | 265 | 0.0 | 0.0 | 0.00 | 0.01 | 0.01 | 92 | 1020.0 |
| 20260902214544 | 50 | 275 | 0.0 | 0.0 | 0.00 | 0.01 | 0.01 | 91 | 1019.9 |
| 20260902213042 | 51 | 275 | 0.0 | 0.0 | 0.00 | 0.01 | 0.01 | 91 | 1019.8 |
| 20260902211540 | 51 | 272 | 0.0 | 0.0 | 0.00 | 0.01 | 0.01 | 91 | 1019.9 |
| 20260902210038 | 51 | 270 | 0.0 | 0.0 | 0.00 | 0.01 | 0.01 | 92 | 1019.8 |
| 20260902204539 | 52 | 268 | 0.0 | 0.0 | 0.00 | 0.01 | 0.01 | 91 | 1019.7 |
| 20260902203037 | 52 | 258 | 0.0 | 0.0 | 0.00 | 0.01 | 0.01 | 91 | 1019.7 |
| 20260902201537 | 52 | 265 | 0.0 | 0.0 | 0.01 | 0.01 | 0.01 | 91 | 1019.6 |
| 20260902200048 | 53 | 265 | 0.0 | 0.0 | 0.01 | 0.01 | 0.01 | 91 | 1019.7 |
| 20260902194530 | 53 | 259 | 0.0 | 0.0 | 0.01 | 0.01 | 0.01 | 91 | 1019.8 |
| 20260902193027 | 53 | 260 | 0.0 | 0.0 | 0.01 | 0.01 | 0.01 | 91 | 1020.0 |
| 20260902191530 | 53 | 261 | 0.0 | 0.0 | 0.00 | 0.00 | 0.00 | 91 | 1020.1 |
| 20260902190042 | 53 | 259 | 0.0 | 0.0 | 0.00 | 0.00 | 0.00 | 91 | 1020.3 |
| 20260902184521 | 53 | 260 | 0.0 | 0.0 | 0.00 | 0.00 | 0.00 | 91 | 1020.5 |